[[{"header":{"parameterUnit":"m.s-1","parameterCategory":2,"la1":30.2992,"la2":30.254,"lo1":-89.0895,"lo2":-89.0443,"dy":0.0025,"dx":0.0025,"nx":19,"ny":19,"refTime":"2026-04-21T03:00:00:Z","depth":"0","parameterNumber":2,"parameterNumberName":"U-component_of_CURRENTS"},"data":[0,0,0,-0.2581,-0.2584,-0.2659,-0.2659,-0.2659,-0.2659,0,0,0,0,0,0,0,0,0,0,0,-0.2543,-0.2544,-0.2581,-0.2584,-0.2659,-0.2659,-0.2659,-0.2659,0,0,0,0,0,0,0,0,0,0,0,-0.2543,-0.2544,-0.2544,-0.2584,-0.2659,-0.2659,-0.2659,-0.2622,0,0,0,0,0,0,0,0,0,0,-0.2559,-0.253,-0.2543,-0.2545,-0.2585,-0.2659,-0.2659,-0.2621,-0.2624,-0.2603,0,-0.2623,0,-0.2653,-0.2658,-0.2658,0,0,0,-0.2566,-0.2528,-0.2568,-0.2545,-0.2586,-0.2659,-0.262,-0.2623,-0.2627,-0.2607,-0.2623,-0.2625,-0.2653,-0.2658,-0.2658,-0.2694,-0.2695,0,0,-0.2562,-0.2534,-0.2565,-0.257,-0.2615,-0.2618,-0.2623,-0.2626,-0.262,-0.2624,-0.2625,-0.2653,-0.2658,-0.2658,-0.2694,-0.2694,0,0,0,-0.2562,-0.2531,-0.2572,-0.2569,-0.2597,-0.262,-0.2626,-0.2619,-0.2639,-0.2626,-0.2653,-0.2658,-0.2658,-0.2693,-0.2694,-0.2728,0,0,0,-0.2558,-0.2533,-0.257,-0.2551,-0.2598,-0.262,-0.2618,-0.2638,-0.2641,-0.2653,-0.2658,-0.2658,-0.2693,-0.2694,-0.2726,-0.2735,0,0,0,-0.2538,-0.2531,-0.2547,-0.255,-0.2595,-0.2622,-0.264,-0.264,-0.2657,-0.2658,-0.2658,-0.2692,-0.2693,-0.2724,-0.2732,-0.2732,0,0,0,-0.2496,-0.2527,-0.2546,-0.2587,-0.2595,-0.2663,-0.2641,-0.2669,-0.2674,-0.2658,-0.2693,-0.2694,-0.2723,-0.273,-0.2731,-0.2558,-0.2551,0,0,-0.2516,-0.2528,-0.2556,-0.2577,-0.2644,-0.265,-0.2705,-0.2695,-0.2681,-0.268,-0.2682,-0.2727,-0.2732,-0.2732,-0.2621,-0.2611,0,0,0,-0.2551,-0.2564,-0.259,-0.2632,-0.2685,-0.272,-0.2729,-0.2731,-0.2735,-0.2695,-0.2739,-0.2741,-0.274,-0.2634,-0.2627,-0.256,-0.2699,-0.2699,-0.2699,-0.2497,-0.2555,-0.2598,-0.2667,-0.2711,-0.2764,-0.2787,-0.279,-0.2772,-0.2782,-0.2779,-0.2815,-0.2704,-0.2696,-0.2631,-0.2793,-0.2793,-0.2793,-0.2793,-0.2499,-0.2512,-0.2594,-0.2655,-0.2719,-0.2763,-0.2827,-0.2828,-0.2846,-0.2827,-0.2824,-0.2687,-0.2689,-0.2623,-0.2796,-0.2795,-0.2795,-0.2795,-0.2794,-0.2429,-0.2446,-0.2504,-0.259,-0.2665,-0.2748,-0.2797,-0.2848,-0.2862,-0.2877,-0.2734,-0.2731,-0.2661,-0.2866,-0.2866,-0.2866,-0.2866,-0.2866,-0.2866,-0.2313,-0.2383,-0.2405,-0.252,-0.2562,-0.2649,-0.2769,-0.2793,-0.2777,-0.2753,-0.2751,-0.2654,-0.2837,-0.2821,-0.2867,-0.2867,-0.2867,-0.2867,-0.2867,-0.2182,-0.2235,-0.226,-0.2302,-0.242,-0.2432,-0.2611,-0.2612,-0.2651,-0.2598,-0.2506,-0.2676,-0.2642,-0.2645,-0.2624,-0.2617,-0.2617,-0.2617,-0.2617,-0.206,-0.2104,-0.2102,-0.2141,-0.2218,-0.2317,-0.224,-0.2281,-0.2315,-0.2277,-0.2372,-0.2311,-0.2324,-0.227,-0.2282,-0.2254,-0.2153,-0.2152,-0.2152,-0.1937,-0.1979,-0.1921,-0.2017,-0.2108,-0.214,-0.1977,-0.1889,-0.1988,-0.2136,-0.2321,-0.2341,-0.226,-0.2286,-0.2207,-0.2228,-0.2185,0,0]},{"header":{"parameterUnit":"m.s-1","parameterCategory":2,"la1":30.2992,"la2":30.254,"lo1":-89.0895,"lo2":-89.0443,"dy":0.0025,"dx":0.0025,"nx":19,"ny":19,"refTime":"2026-04-21T03:00:00:Z","depth":"0","parameterNumber":3,"parameterNumberName":"V-component_of_CURRENTS"},"data":[0,0,0,-0.0223,-0.0222,-0.0106,-0.0105,0.008,0.0081,0,0,0,0,0,0,0,0,0,0,0,-0.0266,-0.0265,-0.0223,-0.0221,-0.0106,-0.0105,0.0079,0.0081,0,0,0,0,0,0,0,0,0,0,0,-0.0266,-0.0266,-0.0265,-0.0221,-0.0106,-0.0105,0.0079,-0.0012,0,0,0,0,0,0,0,0,0,0,-0.0126,-0.018,-0.0266,-0.0265,-0.0221,-0.0107,-0.0105,-0.0016,-0.0006,0.0031,0,0.0032,0,0.0053,0.0092,0.0093,0,0,0,-0.0199,-0.0189,-0.0161,-0.0265,-0.022,-0.0107,-0.0152,-0.0011,0.0001,0.0045,0.0035,0.0041,0.0056,0.0093,0.0094,0.0198,0.0198,0,0,-0.0205,-0.0234,-0.0169,-0.0154,-0.0211,-0.0156,-0.0149,-0.0004,0.0002,0.0035,0.0046,0.0059,0.0094,0.0096,0.0198,0.0198,0,0,0,-0.0239,-0.0239,-0.0214,-0.0162,-0.0148,-0.0153,-0.0145,-0.0004,0.0002,0.0048,0.0061,0.0095,0.0097,0.0198,0.0198,0.0098,0,0,0,-0.0241,-0.026,-0.0217,-0.0231,-0.0152,-0.008,-0.0148,-0.0008,0.0009,0.0061,0.0095,0.0099,0.0198,0.0198,0.01,0.0044,0,0,0,-0.0267,-0.0262,-0.0256,-0.0234,-0.0194,-0.0082,-0.0066,-0.0003,0.0017,0.0093,0.0099,0.0198,0.0198,0.0103,0.005,0.0108,0,0,0,-0.0288,-0.0319,-0.0257,-0.0278,-0.0195,-0.0157,-0.0067,-0.0019,0.0035,0.0096,0.0198,0.0198,0.0104,0.0053,0.011,0.0228,0.023,0,0,-0.0347,-0.0326,-0.0338,-0.0281,-0.0286,-0.017,-0.0146,-0.0036,0.0049,0.0158,0.0161,0.0099,0.005,0.0109,0.0212,0.0215,0,0,0,-0.037,-0.0383,-0.0372,-0.0354,-0.0296,-0.0233,-0.0122,-0.0057,0.0045,0.0077,0.0122,0.0095,0.0135,0.0211,0.0212,0.0495,0.0197,0.0197,0.0197,-0.0486,-0.0451,-0.0476,-0.0427,-0.0389,-0.0269,-0.0202,-0.0086,-0.0007,0.0023,0.003,0.0024,0.0102,0.0105,0.0393,0.0058,0.0057,0.0057,0.0057,-0.0595,-0.0614,-0.0555,-0.0569,-0.0481,-0.0438,-0.0272,-0.0194,-0.0069,-0.003,0.0016,0.012,0.0101,0.0408,0.0051,0.0052,0.0053,0.0053,0.0054,-0.0682,-0.069,-0.0682,-0.0686,-0.065,-0.0538,-0.0449,-0.0325,-0.0164,-0.0133,0.0046,0.005,0.0313,-0.0081,-0.0081,-0.0081,-0.0081,-0.0081,-0.0081,-0.0781,-0.0772,-0.0818,-0.0805,-0.0802,-0.0743,-0.0555,-0.0429,-0.019,-0.0047,-0.0044,0.0359,-0.0015,-0.0019,-0.0081,-0.0081,-0.0081,-0.0081,-0.0081,-0.0892,-0.088,-0.0956,-0.0973,-0.0957,-0.0865,-0.0697,-0.0342,-0.0185,-0.0023,0.0454,0.0049,0.0112,0.0114,0.0116,0.0092,0.0092,0.0092,0.0092,-0.0963,-0.0966,-0.106,-0.1101,-0.1093,-0.0926,-0.0617,-0.0221,0.033,0.0628,0.0683,0.0762,0.0742,0.0847,0.0832,0.0852,0.1015,0.1017,0.1018,-0.103,-0.1054,-0.1128,-0.1159,-0.1148,-0.0941,-0.0557,0.0053,0.0813,0.1081,0.1053,0.1014,0.1151,0.1098,0.1277,0.1233,0.1269,0,0]}],[{"header":{"parameterUnit":"m.s-1","parameterCategory":2,"la1":30.2992,"la2":30.254,"lo1":-89.0895,"lo2":-89.0443,"dy":0.0025,"dx":0.0025,"nx":19,"ny":19,"refTime":"2026-04-21T03:00:00:Z","depth":"2","parameterNumber":2,"parameterNumberName":"U-component_of_CURRENTS"},"data":[0,0,0,-0.2489,-0.2491,-0.2568,-0.2568,-0.2572,-0.2572,0,0,0,0,0,0,0,0,0,0,0,-0.2451,-0.2452,-0.2489,-0.2491,-0.2568,-0.2568,-0.2572,-0.2572,0,0,0,0,0,0,0,0,0,0,0,-0.2451,-0.2452,-0.2453,-0.2492,-0.2568,-0.2568,-0.2572,-0.2533,0,0,0,0,0,0,0,0,0,0,-0.2469,-0.2442,-0.2451,-0.2453,-0.2492,-0.2568,-0.2568,-0.2532,-0.2536,-0.2515,0,-0.2535,0,-0.2564,-0.2571,-0.2571,0,0,0,-0.2475,-0.2439,-0.2477,-0.2453,-0.2493,-0.2568,-0.2529,-0.2535,-0.2538,-0.2519,-0.2535,-0.2536,-0.2564,-0.2571,-0.2571,-0.2608,-0.2608,0,0,-0.2471,-0.2445,-0.2475,-0.248,-0.2522,-0.2527,-0.2531,-0.2538,-0.2533,-0.2535,-0.2537,-0.2564,-0.2571,-0.2571,-0.2608,-0.2608,0,0,0,-0.247,-0.2442,-0.2481,-0.2478,-0.2506,-0.2529,-0.2535,-0.2532,-0.2551,-0.2538,-0.2564,-0.2571,-0.2571,-0.2607,-0.2608,-0.2643,0,0,0,-0.2466,-0.2443,-0.2479,-0.2461,-0.2507,-0.2531,-0.2528,-0.255,-0.2552,-0.2564,-0.2571,-0.2571,-0.2607,-0.2607,-0.2641,-0.2649,0,0,0,-0.2446,-0.2441,-0.2456,-0.246,-0.2505,-0.2533,-0.255,-0.2551,-0.2568,-0.2571,-0.2571,-0.2606,-0.2607,-0.2639,-0.2646,-0.2646,0,0,0,-0.2407,-0.2437,-0.2456,-0.2496,-0.2504,-0.2571,-0.2551,-0.2581,-0.2587,-0.2571,-0.2607,-0.2608,-0.2639,-0.2645,-0.2645,-0.2466,-0.2458,0,0,-0.2427,-0.2438,-0.2466,-0.2486,-0.2551,-0.2559,-0.2614,-0.2608,-0.2595,-0.2593,-0.2595,-0.2642,-0.2646,-0.2646,-0.2529,-0.2518,0,0,0,-0.2461,-0.2474,-0.2499,-0.254,-0.2592,-0.2628,-0.264,-0.2643,-0.2649,-0.2609,-0.2654,-0.2656,-0.2654,-0.2544,-0.2536,-0.2613,-0.2613,-0.2613,-0.2612,-0.2413,-0.2468,-0.251,-0.2575,-0.2619,-0.2673,-0.2696,-0.2701,-0.2684,-0.2696,-0.2694,-0.273,-0.2615,-0.2606,-0.2708,-0.2708,-0.2708,-0.2709,-0.2709,-0.2416,-0.243,-0.2508,-0.2567,-0.263,-0.2675,-0.2737,-0.274,-0.2759,-0.2741,-0.2738,-0.2598,-0.26,-0.2712,-0.2711,-0.2711,-0.271,-0.271,-0.271,-0.2352,-0.2368,-0.2425,-0.2507,-0.2582,-0.2663,-0.271,-0.2761,-0.2776,-0.2791,-0.2644,-0.2641,-0.2732,-0.2781,-0.2781,-0.2781,-0.2781,-0.2781,-0.2781,-0.2244,-0.231,-0.2331,-0.2443,-0.2484,-0.2568,-0.2685,-0.2706,-0.2686,-0.2663,-0.266,-0.2754,-0.2752,-0.2736,-0.2782,-0.2782,-0.2782,-0.2782,-0.2782,-0.2119,-0.2171,-0.2193,-0.2234,-0.2346,-0.2345,-0.2525,-0.2519,-0.2558,-0.2502,-0.2579,-0.2583,-0.2547,-0.2551,-0.253,-0.252,-0.252,-0.252,-0.252,-0.2005,-0.2047,-0.2041,-0.2076,-0.2144,-0.2228,-0.2129,-0.2118,-0.2203,-0.2196,-0.221,-0.2146,-0.2164,-0.2104,-0.2117,-0.2087,-0.1962,-0.1961,-0.196,-0.1887,-0.1926,-0.1867,-0.1956,-0.2035,-0.2042,-0.184,-0.1617,-0.1663,-0.194,-0.2135,-0.2478,-0.2421,-0.2434,-0.2371,-0.2382,-0.2344,0,0]},{"header":{"parameterUnit":"m.s-1","parameterCategory":2,"la1":30.2992,"la2":30.254,"lo1":-89.0895,"lo2":-89.0443,"dy":0.0025,"dx":0.0025,"nx":19,"ny":19,"refTime":"2026-04-21T03:00:00:Z","depth":"2","parameterNumber":3,"parameterNumberName":"V-component_of_CURRENTS"},"data":[0,0,0,-0.0269,-0.0267,-0.0153,-0.0152,0.0034,0.0036,0,0,0,0,0,0,0,0,0,0,0,-0.031,-0.031,-0.0269,-0.0267,-0.0153,-0.0152,0.0034,0.0036,0,0,0,0,0,0,0,0,0,0,0,-0.031,-0.031,-0.031,-0.0266,-0.0153,-0.0152,0.0034,-0.0057,0,0,0,0,0,0,0,0,0,0,-0.017,-0.0224,-0.031,-0.031,-0.0266,-0.0153,-0.0152,-0.0062,-0.0051,-0.0013,0,-0.0012,0,0.0008,0.0047,0.0048,0,0,0,-0.0244,-0.0233,-0.0205,-0.031,-0.0265,-0.0154,-0.0198,-0.0056,-0.0044,0.0001,-0.001,-0.0003,0.0011,0.0048,0.0049,0.0159,0.0159,0,0,-0.025,-0.0278,-0.0213,-0.0198,-0.0256,-0.0202,-0.0195,-0.0049,-0.0043,-0.0009,0.0002,0.0015,0.0049,0.0051,0.0159,0.0159,0,0,0,-0.0284,-0.0283,-0.0259,-0.0206,-0.0193,-0.0199,-0.0191,-0.0049,-0.0043,0.0004,0.0017,0.005,0.0052,0.0159,0.0159,0.0059,0,0,0,-0.0286,-0.0304,-0.0263,-0.0276,-0.0197,-0.0126,-0.0194,-0.0053,-0.0036,0.0016,0.005,0.0054,0.0159,0.0159,0.0062,0.0004,0,0,0,-0.0312,-0.0306,-0.0301,-0.0278,-0.0239,-0.0128,-0.0112,-0.0049,-0.0029,0.0048,0.0054,0.0159,0.0159,0.0065,0.0009,0.0059,0,0,0,-0.0332,-0.0361,-0.0302,-0.032,-0.0241,-0.02,-0.0112,-0.0063,-0.0008,0.0051,0.0159,0.0159,0.0065,0.0013,0.0061,0.016,0.016,0,0,-0.0387,-0.0368,-0.0378,-0.0323,-0.0324,-0.0213,-0.0185,-0.0076,0.0008,0.0119,0.0121,0.0061,0.001,0.006,0.0152,0.0152,0,0,0,-0.0407,-0.042,-0.0408,-0.0389,-0.033,-0.0269,-0.0158,-0.0094,0.0007,0.0037,0.0086,0.0057,0.0092,0.0157,0.0157,0.0158,0.0158,0.0158,0.0158,-0.052,-0.0484,-0.0506,-0.0456,-0.0417,-0.0299,-0.0234,-0.012,-0.004,-0.001,-0.0005,-0.0014,0.0052,0.0053,0.0026,0.0026,0.0026,0.0025,0.0025,-0.0624,-0.0642,-0.0582,-0.0594,-0.0507,-0.0463,-0.03,-0.0225,-0.0104,-0.0062,-0.0021,0.007,0.0048,0.0018,0.0019,0.002,0.0021,0.0021,0.0022,-0.071,-0.0717,-0.0708,-0.071,-0.0673,-0.0563,-0.0481,-0.0356,-0.0201,-0.0173,-0.0012,-0.0008,-0.0058,-0.0125,-0.0125,-0.0125,-0.0125,-0.0125,-0.0125,-0.0809,-0.0799,-0.0843,-0.0828,-0.0826,-0.0769,-0.0588,-0.047,-0.0244,-0.0108,-0.0105,-0.0063,-0.0058,-0.0063,-0.0126,-0.0126,-0.0126,-0.0126,-0.0126,-0.092,-0.0908,-0.0982,-0.0999,-0.0985,-0.0913,-0.0741,-0.0411,-0.026,-0.0112,-0.0024,-0.0026,0.0032,0.0035,0.0035,0.0001,0.0001,0.0001,0.0001,-0.0993,-0.0995,-0.1089,-0.1132,-0.1128,-0.0983,-0.0733,-0.0406,-0.0103,0.0024,0.0022,0.0049,0.0045,0.0106,0.0107,0.0108,0.0094,0.0093,0.0093,-0.1061,-0.1084,-0.1161,-0.1192,-0.1188,-0.102,-0.0735,-0.0329,0.0035,0.0089,-0.0042,0.0023,0.0061,0.0054,0.0151,0.0151,0.0155,0,0]}],[{"header":{"parameterUnit":"m.s-1","parameterCategory":2,"la1":30.2992,"la2":30.254,"lo1":-89.0895,"lo2":-89.0443,"dy":0.0025,"dx":0.0025,"nx":19,"ny":19,"refTime":"2026-04-21T03:00:00:Z","depth":"4","parameterNumber":2,"parameterNumberName":"U-component_of_CURRENTS"},"data":[0,0,0,-0.1824,-0.1827,-0.2002,-0.2002,-0.2104,-0.2105,0,0,0,0,0,0,0,0,0,0,0,-0.1767,-0.1768,-0.1823,-0.1828,-0.2001,-0.2002,-0.2104,-0.2105,0,0,0,0,0,0,0,0,0,0,0,-0.1766,-0.1768,-0.1769,-0.1828,-0.2001,-0.2002,-0.2104,-0.2003,0,0,0,0,0,0,0,0,0,0,-0.1849,-0.1817,-0.1767,-0.1769,-0.1829,-0.2001,-0.2002,-0.1999,-0.2009,-0.1991,0,-0.2029,0,-0.2066,-0.2109,-0.2109,0,0,0,-0.1828,-0.181,-0.1852,-0.177,-0.1831,-0.2001,-0.1923,-0.2006,-0.2017,-0.2003,-0.2031,-0.2036,-0.2068,-0.2109,-0.211,-0.2205,-0.2205,0,0,-0.1818,-0.1799,-0.1845,-0.186,-0.1888,-0.1918,-0.1929,-0.2014,-0.2029,-0.2031,-0.2039,-0.2069,-0.211,-0.211,-0.2204,-0.2205,0,0,0,-0.1791,-0.1792,-0.1835,-0.1854,-0.1894,-0.1923,-0.1935,-0.2026,-0.204,-0.204,-0.207,-0.211,-0.2111,-0.2203,-0.2204,-0.2242,0,0,0,-0.1785,-0.1776,-0.1831,-0.1821,-0.1894,-0.198,-0.1945,-0.2035,-0.2046,-0.207,-0.211,-0.2111,-0.2203,-0.2204,-0.2239,-0.2241,0,0,0,-0.1757,-0.1773,-0.1796,-0.1819,-0.1894,-0.198,-0.2,-0.2038,-0.2063,-0.2109,-0.2112,-0.2202,-0.2204,-0.2237,-0.2238,-0.2233,0,0,0,-0.1724,-0.1765,-0.1796,-0.1855,-0.1893,-0.1996,-0.2,-0.2084,-0.2129,-0.211,-0.2203,-0.2204,-0.2237,-0.2236,-0.2232,-0.1932,0,0,0,-0.175,-0.1768,-0.1802,-0.1834,-0.1925,-0.1971,-0.2069,-0.2129,-0.2139,-0.2164,-0.2168,-0.224,-0.2238,-0.2233,-0.2017,0,0,0,0,-0.1793,-0.1816,-0.1851,-0.1917,-0.1993,-0.2071,-0.214,-0.2165,-0.2224,-0.2173,-0.2258,-0.2255,-0.2251,-0.2073,-0.2211,-0.2211,-0.2211,-0.2211,-0.221,-0.1774,-0.1828,-0.189,-0.1968,-0.204,-0.2147,-0.2204,-0.225,-0.2259,-0.2293,-0.23,-0.234,-0.2157,-0.2324,-0.2324,-0.2324,-0.2324,-0.2324,-0.2324,-0.1784,-0.1807,-0.1905,-0.1986,-0.2082,-0.2171,-0.2269,-0.2299,-0.2351,-0.235,-0.2344,-0.2143,-0.2329,-0.2328,-0.2327,-0.2327,-0.2326,-0.2326,-0.2326,-0.1733,-0.1751,-0.1832,-0.1949,-0.2067,-0.2184,-0.2244,-0.2331,-0.237,-0.2391,-0.218,-0.2355,-0.2334,-0.2388,-0.2388,-0.2388,-0.2388,-0.2388,-0.2388,-0.1628,-0.1711,-0.1761,-0.1906,-0.1976,-0.2084,-0.223,-0.2244,-0.2315,-0.218,-0.2396,-0.2361,-0.2359,-0.2337,-0.2388,-0.2388,-0.2388,-0.2388,-0.2388,-0.1522,-0.1582,-0.1629,-0.1699,-0.1841,-0.1899,-0.2089,-0.2051,-0.2038,-0.1956,-0.2055,-0.2071,-0.2019,-0.2025,-0.199,-0.194,-0.1936,-0.1933,0,-0.1424,-0.1467,-0.1495,-0.1545,-0.1591,-0.1764,-0.1686,-0.1742,-0.1791,-0.1732,-0.2032,-0.2145,-0.2154,-0.21,-0.2099,-0.2058,0,0,0,-0.1335,-0.1365,-0.1334,-0.1419,-0.1459,-0.1503,-0.1647,-0.1579,-0.1812,-0.1692,-0.1839,-0.1864,-0.2182,-0.2389,-0.2349,-0.2346,-0.2309,0,0]},{"header":{"parameterUnit":"m.s-1","parameterCategory":2,"la1":30.2992,"la2":30.254,"lo1":-89.0895,"lo2":-89.0443,"dy":0.0025,"dx":0.0025,"nx":19,"ny":19,"refTime":"2026-04-21T03:00:00:Z","depth":"4","parameterNumber":3,"parameterNumberName":"V-component_of_CURRENTS"},"data":[0,0,0,-0.0227,-0.0226,-0.0145,-0.0144,0.0027,0.0028,0,0,0,0,0,0,0,0,0,0,0,-0.0255,-0.0255,-0.0227,-0.0225,-0.0145,-0.0144,0.0026,0.0028,0,0,0,0,0,0,0,0,0,0,0,-0.0255,-0.0255,-0.0255,-0.0225,-0.0145,-0.0144,0.0026,-0.0046,0,0,0,0,0,0,0,0,0,0,-0.0131,-0.0178,-0.0255,-0.0255,-0.0225,-0.0145,-0.0144,-0.005,-0.0042,0.0002,0,-0.0003,0,0.0009,0.0039,0.004,0,0,0,-0.0203,-0.0185,-0.0165,-0.0255,-0.0225,-0.0145,-0.0175,-0.0046,-0.0036,0.0014,-0.0,0.0006,0.0012,0.004,0.0041,0.0162,0.0163,0,0,-0.0207,-0.023,-0.0172,-0.016,-0.0224,-0.0178,-0.0173,-0.004,-0.0036,0.0,0.001,0.0015,0.0041,0.0042,0.0162,0.0162,0,0,0,-0.0235,-0.0234,-0.0217,-0.0166,-0.0161,-0.0176,-0.017,-0.0042,-0.0038,0.0011,0.0017,0.0042,0.0044,0.0162,0.0162,0.007,0,0,0,-0.0237,-0.0252,-0.022,-0.0231,-0.0165,-0.0111,-0.0175,-0.0047,-0.0032,0.0016,0.0042,0.0046,0.0162,0.0162,0.0073,0.0016,0,0,0,-0.0255,-0.0253,-0.0251,-0.0233,-0.0208,-0.0113,-0.01,-0.0044,-0.0029,0.004,0.0046,0.0162,0.0162,0.0074,0.002,0.0038,0,0,0,-0.027,-0.0288,-0.0252,-0.0261,-0.021,-0.0168,-0.0101,-0.0056,-0.0005,0.0043,0.0162,0.0162,0.0075,0.0023,0.004,0.0004,0,0,0,-0.0304,-0.0293,-0.0296,-0.0263,-0.0256,-0.0177,-0.0146,-0.0054,0.002,0.0127,0.013,0.0072,0.0021,0.0039,0.0022,0,0,0,0,-0.0313,-0.0322,-0.0311,-0.0297,-0.025,-0.0209,-0.0115,-0.0062,0.0027,0.0047,0.0104,0.0075,0.0089,0.0076,0.0164,0.0164,0.0164,0.0164,0.0164,-0.0394,-0.0364,-0.0377,-0.0338,-0.0306,-0.0218,-0.0171,-0.0077,-0.0001,0.0024,0.0023,0.0003,-0.0013,0.0062,0.0061,0.0061,0.0061,0.006,0.006,-0.0462,-0.0473,-0.0433,-0.0441,-0.0384,-0.0348,-0.0221,-0.0163,-0.0069,-0.0021,-0.0001,0.0007,0.0052,0.0053,0.0055,0.0056,0.0056,0.0057,0.0057,-0.0522,-0.0527,-0.0528,-0.0537,-0.0522,-0.044,-0.0396,-0.029,-0.0163,-0.0148,-0.0102,-0.0039,-0.0056,-0.0118,-0.0118,-0.0119,-0.0119,-0.0119,-0.0119,-0.0592,-0.0589,-0.0636,-0.0636,-0.0651,-0.0624,-0.05,-0.0422,-0.0286,-0.021,-0.0164,-0.0056,-0.005,-0.0063,-0.0122,-0.0121,-0.0121,-0.0121,-0.0121,-0.0666,-0.0668,-0.0739,-0.0772,-0.0795,-0.0761,-0.0655,-0.0472,-0.0391,-0.0298,-0.0211,-0.0206,-0.0167,-0.0158,-0.0173,-0.0267,-0.0268,-0.0268,0,-0.072,-0.0724,-0.0825,-0.0888,-0.0909,-0.0837,-0.0722,-0.0597,-0.042,-0.0424,-0.0398,-0.031,-0.0302,-0.0266,-0.0259,-0.0283,0,0,0,-0.0771,-0.0794,-0.0877,-0.0932,-0.0957,-0.0799,-0.0686,-0.062,-0.0453,-0.036,-0.0286,-0.0281,-0.023,-0.013,-0.0057,-0.005,-0.0066,0,0]}]]